Presure
158 111 107 117 118 124 120 119 123 123 118 118 111 126 127 117 121 148 152 117 149 125 75 110 109 118 126 109 146 117 125 129 75 127 112 109 85 188 126 166 163 180 106 146
158 110 111 113 119 66 117 113 111 126 128 111 119 102 114 110 124 119 118 120 122 121 116 102 100 110 125 110 122 107 133 126 127 120 138 103 108 175 162 177 169 156 155 149
111 132 111 108 166 111 109 112 109 114 119 129 122 115 125 125 117 117 115 116 116 99 111 119 112 124 111 131 115 103 116 126 119 93 131 117 112 114 127 161 152 149 156 163
111 126 97 114 117 110 138 124 116 121 118 121 120 125 115 118 128 131 128 140 146 119 128 132 136 124 84 133 111 147 143 121 107 139 131 121 111 116 108 156 168 123 137 163
167 109 155 150 135 151 119 112 144 119 124 127 118 127 113 127 125 106 111 92 120 126 118 127 139 110 126 108 123 114 144 123 119 117 125 125 140 96 127 174 171 166 158 177
146 92 110 169 116 116 102 123 119 86 167 137 133 115 70 118 116 122 126 115 104 120 125 137 101 127 101 123 112 127 133 116 157 123 109 124 168 175 173 138 143 125 180 161
157 193 115 164 176 143 157 108 130 109 125 111 120 110 118 131 117 115 108 106 120 138 138 124 126 112 133 117 140 123 151 179 137 123 154 125 97 156 131 173 178 174 171 172
194 202 117 188 185 148 125 194 126 153 137 140 82 137 192 117 114 107 82 141 141 103 130 119 104 103 171 135 164 200 141 177 136 138 111 123 132 165 177 182 165 189 175 183
204 230 240 207 212 214 222 150 139 133 148 143 139 132 91 124 121 164 119 130 128 122 130 118 126 130 116 178 178 176 184 114 128 85 119 107 98 178 184 179 183 185 173 199
210 243 259 244 241 172 173 239 188 173 215 211 142 178 93 108 166 143 103 141 152 112 154 95 154 127 114 113 132 134 181 138 169 151 118 143 180 151 173 149 164 175 189 196
227 257 186 243 216 238 222 69 229 160 231 238 231 228 157 181 137 126 92 96 113 133 84 131 171 137 142 121 126 131 138 144 196 184 142 147 179 182 190 188 180 189 191 183
79 241 183 237 251 209 218 232 226 225 231 231 223 230 221 199 200 104 108 214 202 104 128 106 118 138 182 117 179 197 174 189 193 94 186 175 171 184 73 171 132 184 162 182
240 251 253 199 257 243 249 233 231 227 224 227 162 201 220 207 200 214 209 208 214 181 82 96 91 191 115 188 140 194 152 190 193 183 176 190 91 160 124 189 186 183 178 183
237 228 231 254 201 230 232 226 239 214 232 226 128 224 220 198 118 100 156 176 154 151 155 86 80 188 218 205 197 192 201 165 193 181 151 175 177 178 182 181 183 190 180 181
290 298 244 226 160 181 230 220 212 216 230 221 182 221 277 239 240 111 90 120 234 230 80 84 201 89 215 200 192 193 202 199 186 77 184 142 189 181 183 187 190 193 191 193
275 276 92 297 289 268 92 240 236 234 211 82 146 222 204 89 206 216 70 124 204 188 123 82 223 95 92 202 199 204 202 198 194 196 77 183 183 185 177 190 191 183 189 204
236 285 274 284 272 283 284 235 222 228 213 218 196 194 211 203 238 207 243 228 194 227 227 126 123 129 212 210 185 209 171 100 171 81 88 194 194 192 194 206 194 205 220 239
271 279 214 290 273 284 74 76 249 226 220 201 210 199 226 141 79 169 170 166 228 230 229 221 228 216 147 96 197 204 203 201 146 199 196 191 193 207 226 228 227 232 235 244
260 182 269 280 292 286 294 277 272 206 267 228 211 205 119 201 233 237 236 226 237 220 218 224 222 218 127 214 168 216 200 194 168 204 201 228 237 236 231 226 221 232 247 244
461 275 263 288 281 292 315 270 102 266 274 239 233 229 116 226 235 238 239 222 171 112 230 231 245 210 212 216 213 216 216 212 217 241 235 234 234 232 225 229 235 224 249 234
387 416 424 279 282 293 273 276 275 267 271 84 155 108 242 193 235 240 237 156 157 236 239 187 126 241 235 243 245 241 240 208 136 236 232 230 229 228 226 227 225 232 208 232
369 373 388 420 299 303 139 258 232 208 203 70 178 91 150 96 124 178 181 197 228 223 222 234 213 225 237 235 242 231 230 226 232 229 228 229 227 225 225 230 228 234 227 219
362 374 375 382 222 315 70 127 115 95 283 261 227 201 255 101 229 226 224 189 218 224 231 198 208 231 225 231 226 226 103 229 230 228 230 226 230 227 229 241 216 213 153 223
352 366 396 379 316 215 73 122 262 98 99 100 226 238 208 273 93 207 229 228 226 218 199 211 146 215 230 221 220 221 219 217 228 230 227 243 220 234 222 222 156 225 224 224
90 392 409 414 292 482 429 90 272 260 244 224 267 269 232 200 96 226 220 120 223 224 171 214 214 219 213 215 220 218 222 223 217 207 211 213 211 214 216 224 234 238 234 231
397 87 386 425 435 467 536 91 280 265 243 95 203 177 229 281 224 218 218 103 149 185 222 220 218 219 221 220 222 220 221 217 209 207 205 211 214 213 209 231 234 239 245 248
Wind_Speed
82 56 53 64 62 58 57 55 58 60 50 48 54 57 57 46 49 70 71 47 63 48 18 32 33 39 43 38 59 46 49 53 8 50 54 38 28 56 55 66 70 53 43 55
95 57 60 61 64 11 56 55 55 64 59 41 46 40 45 38 50 49 48 51 53 50 40 25 32 34 48 39 46 37 58 54 52 48 54 36 43 62 59 62 69 69 67 73
61 78 59 56 100 55 51 57 49 54 57 57 57 58 64 63 50 46 46 48 49 21 37 48 37 52 40 54 41 39 47 56 51 26 55 53 53 54 64 74 80 69 78 74
55 82 36 63 58 51 71 71 61 62 56 62 58 64 57 61 62 63 58 68 74 55 58 56 59 55 24 62 41 76 64 51 42 67 56 55 51 56 41 67 70 62 63 77
102 71 102 95 81 101 69 58 78 61 67 69 69 60 62 72 65 33 51 32 59 65 53 59 68 44 62 39 58 49 70 56 55 54 58 61 66 34 65 74 71 72 80 70
95 41 65 111 72 69 51 70 60 36 97 75 74 37 26 66 61 61 58 59 27 48 59 67 37 59 39 61 45 63 65 52 78 60 45 64 86 85 87 65 59 51 68 77
106 114 78 92 109 83 106 44 66 33 65 46 63 48 55 83 58 62 38 46 62 80 76 61 62 51 67 55 71 60 86 83 67 61 80 62 37 78 67 87 83 79 68 74
123 116 80 102 120 89 80 114 52 89 74 79 30 74 97 65 61 51 32 82 75 33 71 57 50 44 83 73 97 69 81 77 73 71 47 64 70 85 87 90 89 83 78 75
120 114 102 115 102 113 111 90 83 78 87 68 62 75 47 74 71 95 66 77 65 67 69 55 68 67 57 93 89 77 72 53 65 24 58 46 37 82 90 92 92 88 85 74
112 107 96 93 100 92 95 106 88 74 112 112 82 98 43 66 95 82 46 83 79 48 84 39 71 66 54 57 74 75 86 61 78 76 58 74 82 75 97 80 78 92 88 80
110 105 107 91 84 92 102 20 106 77 107 106 101 99 90 91 77 64 39 45 63 50 32 75 90 58 71 64 69 76 79 73 81 82 77 66 92 93 89 93 97 94 91 90
37 108 113 85 83 100 101 99 101 104 96 100 107 95 82 96 99 58 61 101 101 35 75 28 54 79 85 57 94 84 72 90 83 33 87 96 99 93 34 97 67 99 83 94
116 114 107 91 89 88 92 92 99 101 96 100 65 81 75 89 98 94 92 92 103 80 21 35 30 96 50 95 72 91 78 90 83 89 78 90 42 86 61 97 99 100 98 99
123 117 108 108 91 86 92 91 92 85 97 97 55 88 71 73 34 22 68 70 63 59 62 22 22 100 81 85 91 95 86 74 85 89 80 101 100 94 101 102 104 103 100 102
96 91 119 104 94 102 95 94 92 90 89 85 71 78 63 66 73 35 27 46 89 86 27 29 81 38 82 91 96 92 84 85 93 33 98 66 97 100 103 105 105 104 106 107
97 92 35 86 85 105 37 109 99 93 89 30 57 76 64 21 75 72 16 54 94 90 56 30 77 34 41 91 92 85 87 89 92 92 29 103 106 105 100 106 105 105 107 106
68 92 95 84 93 99 93 98 107 104 89 93 99 74 79 72 68 77 79 89 84 84 79 56 45 65 83 87 74 85 73 34 76 31 37 99 103 106 106 103 107 103 97 83
91 95 73 85 97 101 17 21 98 100 98 101 94 93 80 41 23 51 53 61 75 75 75 80 76 81 59 41 84 90 90 91 65 94 98 100 102 100 88 85 86 81 79 71
94 69 97 94 95 93 81 72 80 70 87 98 95 94 48 86 88 77 69 61 71 70 64 75 77 80 65 87 71 84 92 96 69 94 98 83 79 77 78 81 86 75 69 66
53 101 100 96 95 92 66 75 23 87 65 80 92 90 56 94 92 79 72 74 62 62 65 62 63 70 82 81 83 81 82 86 84 70 73 75 73 72 76 73 74 74 67 65
50 52 60 95 97 88 60 74 87 84 54 13 44 25 75 65 81 81 78 61 62 70 68 48 31 58 62 62 62 63 63 63 47 69 70 72 73 72 74 75 75 75 64 68
49 54 62 59 101 78 31 78 64 59 48 7 53 32 55 38 43 62 64 59 70 68 62 57 62 61 59 60 58 62 65 69 68 71 72 72 73 74 76 78 77 75 74 75
53 54 60 68 37 79 18 17 32 22 63 59 65 85 64 42 79 80 75 66 73 69 61 65 57 56 58 57 60 64 53 69 71 72 74 74 75 76 77 75 78 77 70 83
53 53 59 56 34 23 10 25 69 29 43 46 52 55 93 57 31 73 76 74 71 64 62 62 46 61 61 62 65 68 68 69 72 73 73 76 74 75 76 79 65 85 86 87
43 55 49 49 34 46 68 23 76 68 56 54 39 69 93 76 37 74 73 47 73 68 51 61 62 61 63 66 68 69 70 69 68 70 72 74 75 78 80 84 89 92 94 94
43 17 52 51 39 49 47 25 69 59 63 28 67 61 67 62 77 76 77 50 49 63 66 64 63 63 66 69 70 70 69 67 70 73 73 77 79 80 79 90 94 97 101 99
Wind_Direction
264 267 269 268 270 271 277 277 276 277 280 283 292 286 288 287 292 295 297 300 300 302 311 315 308 314 312 320 319 322 323 323 316 325 334 341 343 321 338 328 329 323 338 329
272 266 267 268 271 261 272 276 277 274 274 282 272 275 288 289 289 290 296 296 298 300 306 306 299 314 311 317 316 324 316 320 323 322 326 326 338 318 323 318 322 327 329 334
267 267 269 273 273 271 273 272 279 278 277 273 271 284 283 286 290 290 291 294 296 288 309 306 312 308 308 311 311 310 322 317 322 307 322 325 328 329 328 321 327 325 326 324
264 267 275 272 278 275 268 268 271 274 275 272 274 274 287 289 282 284 289 291 293 292 296 297 301 307 284 308 310 311 312 315 320 315 317 321 326 327 329 317 314 332 327 319
262 267 270 268 265 268 267 270 264 275 271 269 274 274 280 276 284 287 294 268 291 292 294 298 298 307 303 307 310 316 309 312 316 318 317 318 317 322 321 311 309 310 319 306
268 270 274 268 268 272 271 272 271 267 270 267 274 272 276 276 282 285 282 284 282 287 296 293 298 298 297 302 309 306 306 313 302 313 313 316 303 299 300 319 309 313 299 313
267 260 264 264 261 267 264 275 271 283 269 264 274 272 276 279 287 289 277 279 286 281 285 295 296 292 297 299 300 305 302 288 302 310 302 311 311 306 313 301 300 304 303 302
260 259 263 258 259 265 268 260 275 263 262 261 257 275 267 274 279 277 268 280 278 273 286 295 285 294 283 295 293 284 302 283 304 304 309 311 311 297 294 294 308 295 300 295
255 262 261 255 263 262 262 258 263 267 266 268 263 265 263 270 271 271 277 281 277 282 278 295 290 287 298 282 282 283 282 305 303 285 305 303 311 290 289 295 294 296 304 293
257 262 263 261 262 261 263 264 261 262 261 260 266 264 269 274 268 268 274 277 277 289 277 267 277 291 296 297 292 295 281 288 287 292 305 298 284 296 295 299 297 301 296 296
263 268 254 260 258 261 262 256 262 259 263 264 261 259 261 259 266 262 266 274 286 263 268 283 275 279 285 295 295 294 293 289 278 278 293 286 287 286 286 288 294 293 293 297
264 269 254 256 260 258 259 260 259 260 262 262 263 259 258 258 258 265 269 267 266 273 282 261 283 282 276 291 278 273 278 277 276 283 278 285 291 283 312 294 308 292 299 298
265 266 265 249 259 262 261 258 259 259 260 258 249 257 252 253 260 262 261 262 265 264 261 245 276 271 283 274 284 273 283 276 275 276 278 278 299 287 306 286 288 292 298 296
255 262 263 264 255 251 259 257 260 258 256 258 237 266 260 257 240 230 263 259 255 262 264 282 279 270 266 266 269 274 272 281 272 275 285 286 285 281 285 289 288 287 295 296
257 256 255 259 262 260 255 253 257 262 260 261 261 264 264 260 260 257 256 267 260 261 278 284 267 300 263 266 269 270 267 267 271 302 274 281 276 283 283 285 285 285 288 289
258 257 248 254 252 247 267 263 266 265 255 276 258 257 254 261 255 253 242 260 261 264 267 281 263 282 288 264 266 264 264 265 266 268 308 276 279 280 290 282 284 289 290 286
254 255 254 253 252 250 248 251 259 261 251 262 259 265 255 253 259 256 260 256 260 263 263 270 270 277 261 261 264 262 268 291 269 305 304 271 273 276 278 280 282 283 282 287
257 257 255 250 251 252 268 262 248 255 260 261 259 260 267 254 248 259 260 265 263 265 264 262 261 258 267 283 263 262 264 267 275 269 270 274 278 276 280 281 281 283 288 291
253 252 253 251 245 248 247 248 249 248 244 254 263 263 274 257 265 264 266 274 263 263 264 262 261 258 269 260 271 266 266 269 273 269 272 276 278 280 280 280 281 287 298 290
268 250 250 249 249 249 243 248 255 249 244 247 247 252 256 262 262 264 265 259 268 262 259 263 266 262 263 265 267 269 269 270 272 277 276 277 281 283 281 288 292 288 292 285
269 263 255 245 246 244 237 241 244 246 237 217 243 249 250 256 260 260 261 260 261 270 271 272 285 270 270 274 274 273 274 276 290 279 278 280 281 283 285 288 289 293 298 289
266 260 254 256 242 239 246 239 243 241 243 240 249 280 264 282 276 258 262 262 263 263 267 270 263 269 275 276 277 271 274 273 279 281 282 284 286 286 287 291 292 295 294 294
270 262 254 248 259 233 239 231 241 264 236 241 242 253 255 275 250 253 259 262 259 263 267 261 270 275 273 275 274 275 295 281 282 283 283 284 287 288 289 293 291 292 308 294
272 267 269 263 266 238 271 278 230 290 297 283 232 240 257 241 295 257 257 257 258 263 262 266 270 274 276 276 275 276 277 280 282 283 285 287 288 290 290 292 305 295 295 294
238 268 261 251 269 239 221 295 223 225 224 229 241 247 244 254 294 255 257 288 262 263 266 268 270 273 273 274 276 277 279 281 283 284 285 287 288 291 295 295 294 294 296 297
268 253 253 249 235 231 234 273 216 219 220 284 238 249 241 240 244 252 257 282 270 264 268 270 271 271 272 274 277 280 282 284 283 285 288 291 293 295 296 295 297 297 296 296